Weather History for Monument Pass, CO

Change the Weather History Date:

Thursday, January 3, 2013

  Actual Average (KAPA) Record (KAPA)
Temperature  
Mean Temperature 14 °F -  
Max Temperature 28 °F 43 °F 61 °F (2014)
Min Temperature 1 °F 20 °F 1 °F (1999)
Degree Days  
Heating Degree Days 50    
Moisture  
Dew Point -4 °F    
Average Humidity 45    
Maximum Humidity 72    
Minimum Humidity 25    
Precipitation  
Precipitation 0.00 in - - ()
Sea Level Pressure  
Sea Level Pressure 30.17 in    
Wind  
Wind Speed 7 mph (WSW)    
Max Wind Speed 9 mph    
Max Gust Speed -    
Visibility 10 miles    
Events      
Averages and records for this station are not official NWS values.
T = Trace of Precipitation, MM = Missing Value Source: NWS Daily Summary

Daily Weather History Graph

Daily Weather History Graph

Search for Another Location

Airport:

Trip Planner

Search our weather history database for the weather conditions in past years. The results will help you decide how hot, cold, wet, or windy it might be!

Date:

Astronomy

Jan. 03, 2013 Rise Set
Actual Time 7:18 AM MST 4:48 PM MST
Civil Twilight 6:48 AM MST 5:18 PM MST
Nautical Twilight 6:15 AM MST 5:51 PM MST
Astronomical Twilight 5:42 AM MST 6:24 PM MST
Moon 11:23 PM MST (1/3) 10:33 AM MST (1/3)
Length of Visible Light 10h 29m
Length of Day
9h 30m
Waning Gibbous, 65% of the Moon is Illuminated
Jan 3
Waning Gibbous
Jan 4
Last Quarter
Jan 11
New
Jan 18
First Quarter
Jan 26
Full

Hourly Weather History & Observations

Time (MST) Temp. Windchill Dew Point Humidity Pressure Visibility Wind Dir Wind Speed Gust Speed Precip Events Conditions
12:14 AM 5.0 °F -8.1 °F -2.2 °F 72% 30.19 in 10.0 mi SW 8.1 mph - N/A   Scattered Clouds
12:34 AM 8.6 °F -4.7 °F -0.4 °F 67% 30.19 in 10.0 mi SW 9.2 mph - N/A   Scattered Clouds
12:54 AM 10.4 °F -2.4 °F -0.4 °F 62% 30.19 in 10.0 mi SW 9.2 mph - N/A   Mostly Cloudy
1:13 AM 10.4 °F -1.5 °F -0.4 °F 62% 30.19 in 10.0 mi SW 8.1 mph - N/A   Overcast
1:34 AM 10.4 °F -2.4 °F -0.4 °F 62% 30.19 in 10.0 mi WSW 9.2 mph - N/A   Mostly Cloudy
1:54 AM 10.4 °F -0.4 °F -0.4 °F 62% 30.20 in 10.0 mi WSW 6.9 mph - N/A   Mostly Cloudy
2:14 AM 8.6 °F -2.6 °F -0.4 °F 67% 30.21 in 10.0 mi WSW 6.9 mph - N/A   Mostly Cloudy
2:34 AM 6.8 °F -5.9 °F -2.2 °F 67% 30.21 in 10.0 mi WSW 8.1 mph - N/A   Scattered Clouds
2:54 AM 8.6 °F -2.6 °F -0.4 °F 67% 30.21 in 10.0 mi WSW 6.9 mph - N/A   Scattered Clouds
3:14 AM 8.6 °F -2.6 °F -2.2 °F 62% 30.21 in 10.0 mi WSW 6.9 mph - N/A   Clear
3:34 AM 8.6 °F -3.7 °F -4.0 °F 57% 30.20 in 10.0 mi WSW 8.1 mph - N/A   Clear
3:54 AM 8.6 °F -2.6 °F -4.0 °F 57% 30.20 in 10.0 mi WSW 6.9 mph - N/A   Clear
4:14 AM 6.8 °F -4.8 °F -4.0 °F 61% 30.20 in 10.0 mi WSW 6.9 mph - N/A   Clear
4:34 AM 6.8 °F -5.9 °F -4.0 °F 61% 30.19 in 10.0 mi WSW 8.1 mph - N/A   Clear
4:54 AM 8.6 °F -3.7 °F -4.0 °F 57% 30.19 in 10.0 mi WSW 8.1 mph - N/A   Clear
5:14 AM 8.6 °F -2.6 °F -4.0 °F 57% 30.19 in 10.0 mi WSW 6.9 mph - N/A   Clear
5:34 AM 3.2 °F -7.8 °F -5.8 °F 66% 30.19 in 10.0 mi WSW 5.8 mph - N/A   Clear
5:54 AM 3.2 °F -9.1 °F -5.8 °F 66% 30.19 in 10.0 mi WSW 6.9 mph - N/A   Clear
6:14 AM 8.6 °F -1.3 °F -4.0 °F 57% 30.19 in 10.0 mi WSW 5.8 mph - N/A   Clear
6:34 AM 3.2 °F -9.1 °F -7.6 °F 61% 30.19 in 10.0 mi WSW 6.9 mph - N/A   Clear
6:54 AM 1.4 °F -12.5 °F -7.6 °F 66% 30.18 in 10.0 mi SW 8.1 mph - N/A   Clear
7:14 AM 1.4 °F -13.5 °F -7.6 °F 66% 30.18 in 10.0 mi SW 9.2 mph - N/A   Clear
7:34 AM 3.2 °F -10.3 °F -5.8 °F 66% 30.18 in 10.0 mi SW 8.1 mph - N/A   Clear
7:54 AM 3.2 °F -11.3 °F -7.6 °F 61% 30.18 in 10.0 mi SW 9.2 mph - N/A   Clear
8:34 AM 12.2 °F -0.2 °F -5.8 °F 45% 30.20 in 10.0 mi WSW 9.2 mph - N/A   Clear
8:53 AM 14.0 °F 2.9 °F -4.0 °F 45% 30.20 in 10.0 mi WSW 8.1 mph - N/A   Clear
9:14 AM 15.8 °F 7.2 °F -2.2 °F 45% 30.20 in 10.0 mi WSW 5.8 mph - N/A   Clear
9:34 AM 19.4 °F 11.5 °F -2.2 °F 39% 30.21 in 10.0 mi SW 5.8 mph - N/A   Clear
9:54 AM 21.2 °F 14.9 °F -0.4 °F 39% 30.21 in 10.0 mi WSW 4.6 mph - N/A   Clear
10:14 AM 23.0 °F 18.4 °F 1.4 °F 39% 30.21 in 10.0 mi West 3.5 mph - N/A   Clear
10:34 AM 26.6 °F 21.2 °F -0.4 °F 31% 30.21 in 10.0 mi West 4.6 mph - N/A   Clear
10:54 AM 26.6 °F 22.6 °F -0.4 °F 31% 30.20 in 10.0 mi WNW 3.5 mph - N/A   Clear
11:14 AM 28.4 °F 22.2 °F -0.4 °F 29% 30.19 in 10.0 mi West 5.8 mph - N/A   Clear
11:34 AM 28.4 °F 22.2 °F -0.4 °F 29% 30.19 in 10.0 mi WNW 5.8 mph - N/A   Clear
11:54 AM 28.4 °F 23.3 °F -2.2 °F 27% 30.18 in 10.0 mi NW 4.6 mph - N/A   Clear
12:14 PM 28.4 °F 21.2 °F -4.0 °F 25% 30.17 in 10.0 mi NW 6.9 mph - N/A   Clear
12:34 PM 28.4 °F 21.2 °F -4.0 °F 25% 30.16 in 10.0 mi NW 6.9 mph - N/A   Clear
12:54 PM 28.4 °F 21.2 °F -2.2 °F 27% 30.15 in 10.0 mi NW 6.9 mph - N/A   Clear
1:14 PM 28.4 °F 20.4 °F -0.4 °F 29% 30.14 in 10.0 mi NW 8.1 mph - N/A   Clear
1:34 PM 28.4 °F 20.4 °F -0.4 °F 29% 30.13 in 10.0 mi WNW 8.1 mph - N/A   Clear
1:54 PM 28.4 °F 22.2 °F 1.4 °F 31% 30.13 in 10.0 mi West 5.8 mph - N/A   Clear
2:14 PM 28.4 °F 23.3 °F -0.4 °F 29% 30.13 in 10.0 mi West 4.6 mph - N/A   Clear
2:34 PM 28.4 °F 23.3 °F 1.4 °F 31% 30.13 in 10.0 mi WNW 4.6 mph - N/A   Clear
2:54 PM 28.4 °F 23.3 °F -0.4 °F 29% 30.13 in 10.0 mi NNW 4.6 mph - N/A   Clear
3:14 PM 28.4 °F - -2.2 °F 27% 30.13 in 10.0 mi Calm Calm - N/A   Clear
3:34 PM 28.4 °F - -4.0 °F 25% 30.13 in 10.0 mi Calm Calm - N/A   Clear
3:54 PM 26.6 °F - -2.2 °F 29% 30.13 in 10.0 mi Calm Calm - N/A   Clear
4:14 PM 24.8 °F 19.1 °F -5.8 °F 26% 30.14 in 10.0 mi North 4.6 mph - N/A   Clear
4:34 PM 23.0 °F - -5.8 °F 28% 30.15 in 10.0 mi Calm Calm - N/A   Clear
4:54 PM 14.0 °F - -4.0 °F 45% 30.15 in 7.0 mi Calm Calm - N/A   Clear
5:14 PM 14.0 °F - -5.8 °F 41% 30.16 in 10.0 mi Calm Calm - N/A   Clear
5:33 PM 10.4 °F - -5.8 °F 48% 30.16 in 10.0 mi Calm Calm - N/A   Clear
5:54 PM 8.6 °F - -7.6 °F 48% 30.17 in 10.0 mi Calm Calm - N/A   Clear
6:14 PM 10.4 °F 0.8 °F -5.8 °F 48% 30.17 in 10.0 mi SW 5.8 mph - N/A   Clear
6:34 PM 10.4 °F -1.5 °F -5.8 °F 48% 30.17 in 10.0 mi SW 8.1 mph - N/A   Clear
6:54 PM 12.2 °F 2.9 °F -5.8 °F 45% 30.17 in 10.0 mi WSW 5.8 mph - N/A   Clear
7:14 PM 12.2 °F 2.9 °F -5.8 °F 45% 30.17 in 10.0 mi WSW 5.8 mph - N/A   Clear
7:34 PM 10.4 °F -0.4 °F -5.8 °F 48% 30.17 in 10.0 mi WSW 6.9 mph - N/A   Clear
7:54 PM 12.2 °F 2.9 °F -7.6 °F 41% 30.17 in 10.0 mi WSW 5.8 mph - N/A   Clear
8:13 PM 10.4 °F -0.4 °F -7.6 °F 44% 30.16 in 10.0 mi SW 6.9 mph - N/A   Clear
8:34 PM 10.4 °F -2.4 °F -7.6 °F 44% 30.17 in 10.0 mi SW 9.2 mph - N/A   Clear
8:54 PM 10.4 °F -2.4 °F -7.6 °F 44% 30.16 in 10.0 mi SW 9.2 mph - N/A   Clear
9:14 PM 12.2 °F 1.7 °F -7.6 °F 41% 30.16 in 10.0 mi WSW 6.9 mph - N/A   Clear
9:34 PM 14.0 °F 2.9 °F -7.6 °F 38% 30.16 in 10.0 mi WSW 8.1 mph - N/A   Clear
9:54 PM 14.0 °F 2.9 °F -9.4 °F 35% 30.16 in 10.0 mi WSW 8.1 mph - N/A   Clear
10:14 PM 17.6 °F 7.3 °F -9.4 °F 30% 30.16 in 10.0 mi WSW 8.1 mph - N/A   Clear
10:33 PM 14.0 °F 2.9 °F -9.4 °F 35% 30.16 in 10.0 mi WSW 8.1 mph - N/A   Clear
10:54 PM 12.2 °F 1.7 °F -7.6 °F 41% 30.16 in 10.0 mi West 6.9 mph - N/A   Clear
11:14 PM 14.0 °F 3.9 °F -9.4 °F 35% 30.16 in 10.0 mi West 6.9 mph - N/A   Clear
11:33 PM 14.0 °F 3.9 °F -9.4 °F 35% 30.16 in 10.0 mi West 6.9 mph - N/A   Clear
11:53 PM 14.0 °F 3.9 °F -11.2 °F 32% 30.16 in 10.0 mi West 6.9 mph - N/A   Clear